Regional Weather Roundup
Issued by NWS

Home | Current Version | Previous Version | Graphics & Text | Print | Product List | Glossary On
Versions: 1 2 3 4 5 6 7 8 9 10 11 12 13 14 15 16 17 18 19 20 21 22 23 24 25 26 27 28 29 30 31 32 33 34 35 36 37 38 39 40 41 42 43 44 45 46 47 48 49 50
000
ASUS43 KLOT 251208
RWRIL

ILLINOIS REGIONAL WEATHER ROUNDUP
NATIONAL WEATHER SERVICE CHICAGO/ROMEOVILLE IL
600 AM CST SAT FEB 25 2017

NOTE: "FAIR" INDICATES FEW OR NO CLOUDS BELOW 12,000 FEET WITH NO
SIGNIFICANT WEATHER AND/OR OBSTRUCTIONS TO VISIBILITY.

* THESE STATIONS ARE NOT UNDER NWS QUALITY CONTROL. THEY ALSO MAY NOT
  REPORT WEATHER SUCH AS PRECIPITATION OR FOG.

ILZ001-002-007-009-015-016-024-251300-
NORTHWEST ILLINOIS

CITY           SKY/WX    TMP DP  RH WIND       PRES   REMARKS
MOLINE         PTCLDY    23  13  65 NW20G26   29.87R WCI   8
6HR MIN TEMP:  23; 6HR MAX TEMP:  29; 6HR PCP: TRACE;

STERLING*      FLURRIES  21  15  78 NW15G21   29.82R WCI   8
$$

ILZ003-004-008-010-011-017-018-251300-
NORTH CENTRAL ILLINOIS

CITY           SKY/WX    TMP DP  RH WIND       PRES   REMARKS
ROCKFORD       FLURRIES  20  14  77 NW17G23   29.78R WCI   5
6HR MIN TEMP:  20; 6HR MAX TEMP:  29; 6HR PCP:  0.01;

FREEPORT*      CLOUDY    18  14  83 NW15G23   29.79R FOG     WCI   4
ROCHELLE*      LGT SNOW  21  17  84 NW16G22   29.78R WCI   7
DE KALB*       CLOUDY    20  16  83 NW17G26   29.75R WCI   6
PERU*          LGT SNOW  22  17  81 NW22      29.81R WCI   6
$$

ILZ005-006-012>014-019>023-251300-
NORTHEAST ILLINOIS

CITY           SKY/WX    TMP DP  RH WIND       PRES   REMARKS
CHICAGO-OHARE  CLOUDY    25  17  72 NW15      29.70R WCI  13
6HR MIN TEMP:  25; 6HR MAX TEMP:  33; 6HR PCP: TRACE;

CHICAGO-MIDWAY FLURRIES  26  16  65 W20G28    29.71R WCI  12
6HR MIN TEMP:  26; 6HR MAX TEMP:  34; 6HR PCP: TRACE;

AURORA         MOCLDY    22  15  75 NW24      29.75R WCI   5
6HR MIN TEMP:  22; 6HR MAX TEMP:  32; 6HR PCP: TRACE;

LANSING*       FLURRIES  28  22  80 W16G23    29.70R WCI  16
JOLIET*        CLOUDY    26  18  72 NW8       29.76R WCI  17
WAUKEGAN       CLOUDY    22  16  78 W10G22    29.68R WCI  11
6HR MIN TEMP:  22; 6HR MAX TEMP:  29; 6HR PCP: TRACE;

DUPAGE AIRPORT FLURRIES  23  15  71 W16G24    29.72R WCI  10
6HR MIN TEMP:  23; 6HR MAX TEMP:  30; 6HR PCP: TRACE;

KANKAKEE*      FLURRIES  27  19  72 W18G29    29.75R WCI  14
WHEELING       CLOUDY    23  16  74 NW14G22   29.71R WCI  11
6HR MIN TEMP:  23; 6HR MAX TEMP:  31; 6HR PCP: TRACE;

MORRIS*        PTCLDY    23  18  78 NW18G29   29.76R WCI   9
ROMEOVILLE*    CLOUDY    24  20  87 NW21      29.74R WCI   9
NORTHERLY ISL    N/A     27  19  72 W16         N/A  WCI  15
$$

LMZ740>746-251300-
SOUTHERN LAKE MICHIGAN

STATION/POSITION SKY/WX   TEMP    WIND        PRES    VSBY  WAVE
                          AIR SEA DIR/SP/G                  HT/PER
                          (F)     (DEG/KT/KT) (MB)    (MI)  (FT/S)
HARRISON CRIB              27     290/ 22/ 24   N/A
BURNHAM HARBOR             26     230/ 19/ 19   N/A
CALUMET HARBOR             27     270/  4/ 11 1005.0R
BURNS HARBOR               30     290/ 22/ 27 1004.7R
MICHIGAN CITY              30     270/ 23/ 26   N/A
$$

ILZ025>027-034>036-040-047-049-050-058-095>099-251300-
WEST-CENTRAL ILLINOIS

CITY           SKY/WX    TMP DP  RH WIND       PRES   REMARKS
QUINCY         PTCLDY    22  14  71 NW24G32   29.96R WCI   5
GALESBURG*     CLOUDY    22  16  78 W18G28    29.88R WCI   7
MACOMB*        CLOUDY    23  17  80 NW21      29.94R WCI   8
JACKSONVILLE*  CLOUDY    26  17  68 W18G26    29.93R WCI  12
PITTSFIELD*    CLOUDY    26  18  70 W13G20    29.97R WCI  15
$$

ILZ028>032-037-038-041>044-048-051>054-059>061-251300-
CENTRAL ILLINOIS

CITY           SKY/WX    TMP DP  RH WIND       PRES   REMARKS
PONTIAC        CLOUDY    26  21  82 W23G37    29.80R WCI  11
BLOOMINGTON    FLURRIES  23  17  78 NW25G33   29.82R WCI   7
DECATUR        MOCLDY    25  15  66 W23G32    29.86R WCI  10
PEORIA         LGT SNOW  23  17  78 NW14G24   29.87R WCI  11
6HR MIN TEMP:  23; 6HR MAX TEMP:  33; 6HR PCP:  0.02;

LACON*         FLURRIES  23  17  78 NW18      29.84R WCI   8
LINCOLN*       MOCLDY    25  17  69 NW13G24   29.88R WCI  14
SPRINGFIELD    FLURRIES  27  19  72 NW13      29.90R WCI  16
6HR MIN TEMP:  27; 6HR MAX TEMP:  31; 6HR PCP: TRACE;

TAYLORVILLE    CLOUDY    27  18  69 W21G31    29.91R WCI  13
6HR MIN TEMP:  27; 6HR MAX TEMP:  33;

$$

ILZ033-039-045-046-055>057-062-063-251300-
EAST-CENTRAL ILLINOIS

CITY           SKY/WX    TMP DP  RH WIND       PRES   REMARKS
CHAMPAIGN      MIX PCPN  26  19  74 W23G36    29.81R WCI  11
RANTOUL*       CLOUDY    28  23  80 NW18G26   29.79R WCI  15
MATTOON        CLOUDY    27  20  75 W24G33    29.85R WCI  12
PARIS*         CLOUDY    29  23  79 W25G33    29.83R WCI  14
$$

ILZ079-100>102-251300-
SOUTHWEST ILLINOIS

CITY           SKY/WX    TMP DP  RH WIND       PRES   REMARKS
ALTON          CLOUDY    28  17  63 W16       29.96R WCI  17
BELLEVILLE     MIX PCPN  30  18  59 W10G24    29.96R WCI  21
CAHOKIA*       CLOUDY    30  16  56 W17G28    29.98R WCI  18
SPARTA*        CLOUDY    29  18  63 W13G23    29.98R WCI  19
$$

ILZ064>066-069>071-074>076-080>082-084>086-088>090-092>094-251300-
SOUTH-CENTRAL ILLINOIS

CITY           SKY/WX    TMP DP  RH WIND       PRES   REMARKS
CARBONDALE     CLOUDY    31  21  66 NW14G23   29.97R WCI  21
6HR MIN TEMP:  31; 6HR MAX TEMP:  43;

CAIRO*         PTCLDY    32  22  66 W7        30.00R WCI  25
EFFINGHAM*     CLOUDY    30  22  71 W18G30    29.91R WCI  18
MARION         CLOUDY    32  19  59 NW10G22   29.97R WCI  24
MT. VERNON     CLOUDY    30  20  66 W7        29.94R WCI  23
CENTRALIA*     CLOUDY    31  21  68 NW16G24   29.93R WCI  19
SALEM*         CLOUDY    31  18  59 W20G35    29.92R WCI  19
METROPOLIS*    CLOUDY    33  19  56 W10G21    29.99R WCI  24
$$

ILZ067-068-072-073-078-083-087-091-251300-
SOUTHEAST ILLINOIS

CITY           SKY/WX    TMP DP  RH WIND       PRES   REMARKS
LAWRENCEVILLE  CLOUDY    32  23  69 W22G29    29.89R WCI  19
FLORA*         CLOUDY    32  19  59 W23G35    29.92R WCI  19
FAIRFIELD*     CLOUDY    31  21  67 W12       29.92R WCI  21
HARRISBURG*    CLOUDY    32  21  63 W21G29    29.96R WCI  20
ROBINSON*      CLOUDY    30  22  72 NW22G30   29.88R WCI  17
CARMI*         CLOUDY    32  20  61 W21G32    29.93R WCI  19
$$

ABBREVIATIONS USED IN REMARKS
   TC - TEMPERATURE IN CELSIUS
  WCI - WIND CHILL INDEX
   HX - HEAT INDEX
  VSB - VISIBILITY
$$




USA.gov is the U.S. government's official web portal to all federal, state and local government web resources and services.